1st Responders/1st Detectors/Storm Spotters Weather Summary for Breathitt County, KY

Forecast Maps


Reg. NEXRAD Animation


National Fire Danger: Day 1 & 2 Map

Current NWS Watch/Warnings

SPC Convective Day 1 Outlook


Day 2 Outlook

(Click images to enlarge|Page will refresh every 5 minutes)
UK Ag. Weather Center Desktop Severe Weather Service[HERE]
Breathitt County, KY Hazardous Weather Outlook Webcast
(9 AM to 9 PM Mon-Fri)
[Fast]
[Dial-up]


UKAWC 1st Detectors/1st Responders Precision Weather Forecast For BREATHITT County, Kentucky
(based on the NWS County Digital Forecast)

ISSUED AT 04:00 UTC ON SUNDAY JUL 22 2018
DAY SUNDAY
EDT 3HR 1A 2A 3A 4A 5A 6A 7A 8A 9A 10A 11A NOON 1P 2P 3P 4P 5P 6P 7P
MAX/MIN -- -- -- -- -- -- -- 65° -- -- -- -- -- -- -- -- -- -- 76°
TEMP 67° 67° 67° 67° 67° 65° 65° 67° 67° 70° 72° 74° 76° 76° 76° 76° 76° 74° 72°
SKY COVER 93% 93% 93% 92% 92% 92% 92% 92% 94% 95% 96% 95% 91% 86% 86% 85% 84% 83% 82%
Clouds
DEW PT 67° 67° 67° 67° 67° 65° 65° 65° 67° 67° 67° 68° 70° 70° 70° 70° 70° 70° 68°
RH 100% 100% 100% 100% 99% 99% 99% 97% 96% 90% 84% 84% 81% 84% 78% 78% 81% 84% 86%
POP 12HR -- -- -- -- -- -- -- 56% -- -- -- -- -- -- -- -- -- -- --
RAIN/SNOW (liq.equ) -- 0.14in -- -- -- -- -- 0.06in -- -- -- -- -- 0.08in -- -- -- -- --
SNOWFALL -- 0in -- -- -- -- -- 0in -- -- -- -- -- 0in -- -- -- -- --
WIND SPEED(MPH) 1 1 1 1 1 1 1 1 2 2 2 2 2 2 2 2 2 2 2
WIND Gust(MPH) 2 2 2 2 2 2 2 2 5 5 5 5 5 5 5 5 5 5 5
WIND DIR SW SW SW W W W W SW SW SW SW SW SW SW W W W SW W
DEW -- -- -- -- -- -- -- -- -- -- -- -- -- Lgt Dew Lgt Dew Lgt Dew Lgt Dew Hvy Dew Hvy Dew
HeatIndex 67 67 67 67 67 65 65 67 67 70 72 74 76 76 76 76 76 74 72
Rain Showers Chance Slight Chance Slight Chance Slight Chance Slight Chance Slight Chance Slight Chance Slight Chance Slight Chance Chance Chance Chance Chance Likely Likely Likely Likely Likely Likely
Thunder Storm -- -- -- -- -- -- -- -- -- -- -- -- -- Slight Chance Chance Chance Slight Chance Slight Chance Slight Chance
WIND CHILL -- -- -- -- -- -- -- -- -- -- -- -- -- -- -- -- -- -- --
SPRAY COND
DRY COND
LIVESTOCK HEATSTRESS 67.00 67.00 67.00 67.00 66.95 64.97 64.97 66.86 66.82 69.38 70.84 72.66 74.20 74.49 73.92 73.92 74.20 72.66 70.98



DAY MONDAY TUESDAY WEDNESDAY THURSDAY FRIDAY SATURDAY
EDT 6HR 8P 9P 10P 11P MIDN 1A 2A 3A 4A 5A 6A 7A 8A 9A 10A 11A NOON 2P 5P 8P 11P 2A 5A 8A 11A 2P 5P 8P 2A 8A 2P 8P 2A 8A 2P 8P 2A 8A 2P 8P 2A 8A 2P 8P
MAX/MIN -- -- -- -- -- -- -- -- -- -- -- -- 65° -- -- -- -- -- 81° -- -- -- -- 67° -- -- 83° -- -- 67° 83° -- -- 67° 85° -- -- 65° 85° -- -- 65° 85° --
TEMP 72° 70° 68° 67° 67° 67° 67° 65° 65° 65° 65° 65° 67° 68° 72° 76° 79° 81° 79° 76° 70° 67° 67° 68° 79° 83° 83° 76° 70° 68° 83° 76° 68° 68° 85° 76° 67° 67° 85° 76° 67° 67° 83° 76°
SKY COVER 81% 80% 78% 77% 77% 77% 78% 78% 79% 79% 81% 85% 86% 85% 84% 83% 82% 79% 74% 80% 72% 71% 80% 77% 73% 69% 76% 79% 72% 76% 81% 73% 57% 58% 45% 31% 33% 47% 46% 47% 50% 58% 58% 51%
Clouds
DEW PT 67° 67° 67° 67° 67° 65° 65° 65° 65° 65° 65° 65° 65° 67° 67° 67° 68° 70° 70° 70° 67° 67° 65° 67° 70° 72° 72° 72° 67° 68° 72° 72° 67° 67° 70° 70° 67° 67° 70° 70° 67° 65° 67° 67°
RH 86% 93% 93% 97% 100% 96% 96% 99% 96% 100% 99% 99% 96% 93% 84% 76% 71% 66% 71% 81% 90% 97% 96% 93% 76% 69% 69% 87% 93% 100% 67% 85% 97% 96% 60% 78% 96% 96% 59% 79% 96% 96% 58% 74%
POP 12HR 58% -- -- -- -- -- -- -- -- -- -- -- 56% -- -- -- -- -- -- 51% -- -- -- 40% -- -- -- 56% -- 45% -- 52% -- 36% -- 30% -- 13% -- 23% -- 21% -- 26%
RAIN/SNOW (liq.equ) 0.14in -- -- -- -- -- 0.03in -- -- -- -- -- 0.01in -- -- -- -- 0.03in -- 0.15in -- 0.01in -- 0.01in -- 0.02in -- 0.18in -- -- -- -- -- -- -- -- -- -- -- -- -- -- -- --
SNOWFALL 0in -- -- -- -- -- 0in -- -- -- -- -- 0in -- -- -- -- 0in -- 0in -- 0in -- 0in -- 0in -- 0in -- -- -- -- -- -- -- -- -- -- -- -- -- -- -- --
WIND SPEED(MPH) 1 1 0 0 0 0 0 0 0 0 0 0 0 0 1 1 1 2 2 1 1 0 1 0 1 1 2 1 1 0 1 0 0 1 2 1 0 1 2 1 0 1 2 2
WIND DIR W SW S S S S S SE E NE NE E E E NE NE N N N N N N N NE NE NE N N E SW W N W W NW NW S W NW NW N N W N
HeatIndex 72 70 68 67 67 67 67 65 65 65 65 65 67 68 72 76 79 85 83 76 70 67 67 68 79 88 88 76 70 68 89 76 68 68 89 76 67 67 90 76 67 67 87 76
Rain Showers Likely Chance Chance Chance Chance Chance Chance Slight Chance Slight Chance Slight Chance Slight Chance Slight Chance Chance Chance Chance Chance Chance Chance Chance Chance Chance Slight Chance Slight Chance Chance Chance Chance Likely Chance Chance Chance Chance Chance Slight Chance Slight Chance Slight Chance -- -- -- Slight Chance Slight Chance -- Slight Chance Slight Chance Slight Chance
Thunder Storm Slight Chance -- -- -- -- -- -- -- -- -- -- -- -- -- -- -- -- Slight Chance Chance Slight Chance -- -- -- -- -- Slight Chance Chance Slight Chance Slight Chance Slight Chance Chance Chance Slight Chance Slight Chance Slight Chance -- -- -- Slight Chance Slight Chance -- Slight Chance Slight Chance --
WIND CHILL -- -- -- -- -- -- -- -- -- -- -- -- -- -- -- -- -- -- -- -- -- -- -- -- -- -- -- -- -- -- -- -- -- -- -- -- -- -- -- -- -- -- -- --
SPRAY COND
DRY COND
LIVESTOCK HEATSTRESS 70.98 69.57 67.65 66.86 67.00 66.82 66.82 64.97 64.86 65.00 64.97 64.97 66.82 67.65 70.84 73.73 75.78 76.85 75.78 74.20 69.38 66.86 66.82 67.65 76.33 78.87 78.87 74.77 69.57 68.00 78.61 74.58 67.85 67.80 79.24 73.92 66.82 66.82 79.09 74.01 66.82 66.82 77.41 73.54

Click on individual weather variable above in left-hand column (ie., TEMP, RH, QPF 12HR) to view state forecast maps






NWS 48 Hr. Forecast Maps,

Regional Hourly Observations For BREATHITT County, Kentucky
Issued at 1200 AM EDT SUN JUL 22 2018
...EASTERN KENTUCKY...
  
CITY           SKY/WX    TMP DP  RH WIND       PRES   REMARKS
JACKSON        FOG       66  65  96 CALM      29.78F VSB 1/4          
LONDON         CLOUDY    70  68  93 SW5       29.80F                  
SOMERSET*      CLOUDY    70  64  83 NW8       29.82S                  
MONTICELLO*    CLOUDY    70  67  90 W10       29.83F                  
WILLIAMSBURG*  MOCLDY    68  68 100 W5        29.81F                  
MIDDLESBORO*   MOCLDY    67  67 100 CALM      29.81F                  
HARLAN APT*    CLOUDY    68  67  98 MISG      29.82F                  
PIKE CO APT*   FOG       67  67 100 S3        29.79F VSB 1/4          
BIG SANDY APT* CLOUDY    68  68 100 CALM      29.77F                  
MOREHEAD APT*  CLOUDY    68  66  94 S6        29.76F                  
ASHLAND*       CLOUDY    70  66  88 S3        29.75S                  


Current NOWCAST not available:
Nowcasts are not issued routinely during fair weather. Only when
precipitation or other significant weather is occuring in this county will these
forecasts be issued. Currently, there is no short term forecast in effect.


Fire Weather Forecast For BREATHITT County, KY
Provided by the National Weather Service:

Issued at: Sun Jul 22 00:05:01 EDT 2018


                      Today        Tonight      Sun          

Cloud Cover           PCldy        MCldy        MCldy        
Chance precip (%)     60           60           70           
Precip type           tstms        tstms        tstms        
Temp (24H TREND)      78-81 (-5)   62-66 (+3)   75-78        
Rh % (24H TREND)      62-67 (+12)  97-100 (+2)  70-75        
20ftwnd-AM(mph)       SW 3-7                    SW 2-6       
20ftwnd-PM(mph)       SW 3-7       SW 2-6       SW 2-6       
Precip duration       2            2            3            
Precip begin          8 AM         Continuing   Continuing   
Precip end            Continuing   Continuing   Continuing   
Precip amount         0.25         0.32         0.34         
LAL                   4            4            4            
Haines Index (MID)    3                         3            
Mixing hgt(ft-AGL)    5600                      2500         
Transport wnd (mph)   SW 15                     W 12         
Vent rate (kt-ft)     75800                     25420        
ADI Early             44 Gen Good  3 Very Poor  23 Fair      
ADI Late              52 Gen Good  7 Poor       24 Fair      
Max LVORI Early       5            9            7            
Max LVORI Late        4            9            5            

REMARKS...RANGES OF MIN T EXCEEDING 8 DEGREES & RANGES OF MAX RH        
EXCEEDING 10% INDICATE THE LIKELIHOOD OF THERMAL BELTS. ADI IS        
ATMOSPHERIC DISPERSION INDEX BY LAVDAS. DISPERSION INDEX IS        
MAGNITUDE OF VENT RATE DIVIDED BY 1000.


SPC's Fire Weather Web Tool (Excellent!), SPC's Fire Weather Outlooks, NWS Fire Weather WEB, Fire Danger Class Map,
Keetch-Byram Drought Index, ROMAN Web, Haines Index ,
WFAS's 10-hr Dead Fuel Moist., WFAS's 100-hr Dead Fuel Moist., Probablity of Ignition, Visual blackness Map, Palmer Drought Index, HPC's Rainfall Forecast Maps


Hazardous Weather Outlook For BREATHITT County, Kentucky
959 PM EDT Sat Jul 21 2018

 DAY ONE  Tonight.

There is a slight chance of thunderstorms tonight.

 DAYS TWO THROUGH SEVEN  Sunday through Friday.

Thunderstorms will be possible at times, mainly during the 
afternoon and evening hours.

Some of the thunderstorms on Sunday could produce locally heavy
rain.

 SPOTTER INFORMATION STATEMENT  

Spotter activation is not anticipated.

Latest BREATHITT County, Kentucky Watches, Warnings and Advisories.
Additional Drought Info.: UKAWC Drought Page, Kentucky Drought Watch


7-Day Forecast For BREATHITT County, KY

TONIGHT
Cloudy. A chance of showers until early morning, then a slight chance of showers late. Patchy valley fog. Lows in the mid 60s. Light winds. Chance of rain 50 percent.

SUNDAY
Cloudy. Patchy valley fog early. A chance of showers and a slight chance of thunderstorms in the morning, then showers likely and a chance of thunderstorms in the afternoon. Highs in the upper 70s. Light winds. Chance of rain 60 percent.

SUNDAY NIGHT
Mostly cloudy. Showers likely and a slight chance of thunderstorms in the evening, then a chance of showers late. Patchy valley fog late. Lows in the mid 60s. Light winds. Chance of rain 60 percent.

MONDAY
Mostly cloudy. A chance of showers and a slight chance of thunderstorms in the morning, then a chance of showers and thunderstorms in the afternoon. Highs in the lower 80s. Light winds. Chance of rain 50 percent.

MONDAY NIGHT
Mostly cloudy. A chance of showers and a slight chance of thunderstorms in the evening, then a slight chance of showers late. Lows in the upper 60s. Light winds. Chance of rain 40 percent.

TUESDAY
Mostly cloudy with showers likely and a chance of thunderstorms. Highs in the mid 80s. Chance of rain 60 percent.

TUESDAY NIGHT
Mostly cloudy with a chance of showers and a slight chance of thunderstorms. Lows in the upper 60s. Chance of rain 50 percent.

WEDNESDAY
Mostly cloudy with a 50 percent chance of showers and thunderstorms. Highs in the lower 80s.

WEDNESDAY NIGHT
Mostly cloudy with a 40 percent chance of showers. Lows in the upper 60s.

THURSDAY
Mostly sunny with a chance of showers and a slight chance of thunderstorms. Highs in the lower 80s. Chance of rain 30 percent.

THURSDAY NIGHT
Partly cloudy. Lows in the upper 60s.

FRIDAY
Mostly sunny with a 20 percent chance of showers and thunderstorms. Highs in the mid 80s.

FRIDAY NIGHT
Mostly cloudy with a 20 percent chance of showers. Lows in the mid 60s.

SATURDAY
Partly sunny with a 30 percent chance of showers and thunderstorms. Highs in the mid 80s.

Ag Weather Center, Department of Biosystems & Agricultural Engineering, University of Kentucky